Bilbao, Spain

10:18 PM CEST on July 21, 2017 (GMT +0200)
Bilbao

Weather History for LEBB - May, 2014

Change the Weather History Date:

Sunday, May 18, 2014

  Actual Average Record
Temperature  
Mean Temperature 65 °F -  
Max Temperature 84 °F 73 °F 89 °F (2004)
Min Temperature 46 °F 55 °F 46 °F (2014)
Growing Degree Days 15 (Base 50)    
Moisture  
Dew Point 50 °F    
Average Humidity 61    
Maximum Humidity 93    
Minimum Humidity 18    
Precipitation  
Precipitation 0.00 in - - ()
Sea Level Pressure  
Sea Level Pressure 29.78 in    
Wind  
Wind Speed 4 mph ()    
Max Wind Speed 15 mph    
Max Gust Speed -    
Visibility 11.1 miles    
Events      
Averages and records for this station are not official NWS values.
T = Trace of Precipitation, MM = Missing Value Source: Averaged Metar Reports

Daily Weather History Graph

Daily Weather History Graph

Search for Another Location

Airport or City:

Trip Planner

Search our weather history database for the weather conditions in past years. The results will help you decide how hot, cold, wet, or windy it might be!

Date:

Astronomy

May. 18, 2014 Rise Set
Actual Time 6:44 AM CEST 9:32 PM CEST
Civil Twilight 6:11 AM CEST 10:05 PM CEST
Nautical Twilight 5:29 AM CEST 10:47 PM CEST
Astronomical Twilight 4:41 AM CEST 11:36 PM CEST
Moon 12:18 AM CEST (5/18) 10:18 AM CEST (5/18)
Length of Visible Light 15h 53m
Length of Day
14h 47m
Waning Gibbous, 83% of the Moon is Illuminated
May 18
Waning Gibbous
May 21
Last Quarter
May 28
New
Jun 5
First Quarter
Jun 13
Full

Hourly Weather History & Observations

Time (CEST) Temp. Dew Point Humidity Pressure Visibility Wind Dir Wind Speed Gust Speed Precip Events Conditions
5:00 AM 48.2 °F 46.4 °F 93% 29.98 in 6.2 mi SE 3.5 mph - N/A   Partly Cloudy
5:30 AM 48.2 °F 46.4 °F 93% 29.95 in 6.2 mi Calm Calm - N/A   Partly Cloudy
6:00 AM 48.2 °F 46.4 °F 93% 29.95 in - Calm Calm - N/A   Clear
6:30 AM 48.2 °F 46.4 °F 93% 29.92 in - Variable 2.3 mph - N/A   Clear
7:00 AM 48.2 °F 46.4 °F 93% 29.92 in - Variable 1.2 mph - N/A   Clear
7:30 AM 48.2 °F 46.4 °F 93% 29.92 in - Variable 1.2 mph - N/A   Clear
8:00 AM 51 °F 47 °F 82% 29.92 in 19 mi ESE 3.5 mph - -   Clear
8:00 AM 50.0 °F 46.4 °F 87% 29.92 in - Variable 2.3 mph - N/A   Clear
8:30 AM 51.8 °F 46.4 °F 82% 29.89 in - SE 4.6 mph - N/A   Clear
9:00 AM 55.4 °F 46.4 °F 72% 29.89 in - SE 3.5 mph - N/A   Clear
9:30 AM 59.0 °F 48.2 °F 67% 29.89 in - Variable 1.2 mph - N/A   Clear
10:00 AM 62.6 °F 48.2 °F 59% 29.86 in - Variable 1.2 mph - N/A   Clear
10:30 AM 66.2 °F 46.4 °F 49% 29.86 in - SE 5.8 mph - N/A   Clear
11:00 AM 69 °F 45 °F 31% 29.85 in 22 mi SSE 10.4 mph - -   Clear
11:00 AM 69.8 °F 46.4 °F 43% 29.86 in - SSE 10.4 mph - N/A   Clear
11:30 AM 71.6 °F 46.4 °F 41% 29.83 in - SSE 6.9 mph - N/A   Clear
12:00 PM 73.4 °F 46.4 °F 38% 29.83 in - SSE 8.1 mph - N/A   Clear
12:30 PM 75.2 °F 48.2 °F 38% 29.80 in - South 5.8 mph - N/A   Clear
1:00 PM 77.0 °F 44.6 °F 32% 29.80 in - Variable 5.8 mph - N/A   Clear
1:30 PM 78.8 °F 44.6 °F 30% 29.77 in - South 5.8 mph - N/A   Clear
2:00 PM 80 °F 44 °F 18% 29.76 in 22 mi SSW 5.8 mph - -   Clear
2:00 PM 78.8 °F 42.8 °F 28% 29.77 in - SSW 4.6 mph - N/A   Clear
2:30 PM 82.4 °F 42.8 °F 25% 29.74 in - SSW 8.1 mph - N/A   Clear
3:00 PM 82.4 °F 44.6 °F 26% 29.74 in - SSW 11.5 mph - N/A   Clear
3:30 PM 82.4 °F 41.0 °F 23% 29.71 in - SSW 9.2 mph - N/A   Clear
4:30 PM 82.4 °F 50.0 °F 32% 29.68 in - North 8.1 mph - N/A   Clear
5:00 PM 82 °F 52 °F 25% 29.68 in 12 mi NNW 3.5 mph - -   Scattered Clouds
5:00 PM 80.6 °F 51.8 °F 37% 29.68 in - North 4.6 mph - N/A   Clear
5:30 PM 77.0 °F 53.6 °F 44% 29.68 in - NW 12.7 mph - N/A   Clear
6:00 PM 73.4 °F 59.0 °F 61% 29.68 in - NW 15.0 mph - N/A   Clear
6:30 PM 71.6 °F 59.0 °F 64% 29.68 in - WNW 11.5 mph - N/A   Clear
7:00 PM 69.8 °F 59.0 °F 68% 29.68 in - WNW 10.4 mph - N/A   Clear
7:30 PM 69.8 °F 59.0 °F 68% 29.65 in - WNW 9.2 mph - N/A   Clear
8:00 PM 68 °F 59 °F 64% 29.67 in 12 mi WNW 8.1 mph - -   Clear
8:00 PM 68.0 °F 59.0 °F 73% 29.65 in - WNW 6.9 mph - N/A   Clear
8:30 PM 66.2 °F 59.0 °F 78% 29.65 in - WNW 8.1 mph - N/A   Clear
9:00 PM 64.4 °F 59.0 °F 83% 29.65 in - WNW 4.6 mph - N/A   Clear
9:30 PM 62.6 °F 59.0 °F 88% 29.65 in - Variable 1.2 mph - N/A   Clear
10:00 PM 62.6 °F 57.2 °F 82% 29.65 in - Calm Calm - N/A   Clear
10:30 PM 60.8 °F 57.2 °F 88% 29.65 in - Calm Calm - N/A   Clear
11:00 PM 60.8 °F 57.2 °F 88% 29.65 in - Calm Calm - N/A   Clear
11:30 PM 59.0 °F 55.4 °F 88% 29.62 in - Variable 2.3 mph - N/A   Clear